Wind_Speed
23 24 25 25 25 25 25 25 25 24 25 23 22 22 21 20 17 15 13 12 13 13 12 11 10 10 10 10 10 9 9 10 11 11 12 13 14 16 17 18 18 19 20 20
27 26 26 26 27 27 27 26 26 26 26 24 23 22 22 21 19 18 15 15 15 15 13 13 12 12 11 11 11 11 12 11 12 12 12 13 14 15 16 17 18 19 20 21
27 27 27 28 27 28 28 27 26 26 25 24 23 23 23 22 22 20 17 17 17 16 14 13 13 13 13 13 14 13 12 12 13 12 13 14 14 15 16 17 19 20 20 21
28 28 29 27 28 29 27 27 27 27 26 26 25 24 24 24 23 21 19 19 18 17 15 15 14 14 14 13 13 12 12 12 13 13 13 13 15 16 17 18 19 20 21 22
28 28 27 27 27 28 28 27 27 26 25 25 26 25 25 24 22 21 20 19 18 18 16 15 15 15 15 15 15 14 13 13 13 13 13 14 15 16 16 17 18 19 19 21
28 28 27 26 26 26 26 27 26 26 25 25 25 26 24 24 23 20 19 18 18 18 17 16 16 16 16 16 17 16 16 15 15 15 15 15 16 17 17 17 18 18 20 21
29 28 28 25 25 25 25 24 23 23 23 24 25 24 23 23 22 21 20 19 18 18 18 18 18 17 16 16 17 16 16 16 16 16 16 17 17 17 17 18 18 19 20 22
28 28 27 23 23 23 23 21 21 21 21 22 22 22 22 21 21 21 20 19 17 16 17 17 16 16 16 16 17 17 18 17 18 18 17 17 17 18 18 18 19 20 21 22
25 25 24 23 22 21 21 21 21 20 21 21 22 21 20 19 19 19 18 17 16 16 17 16 16 17 17 17 17 18 18 19 19 19 20 20 20 20 20 20 21 21 22 23
25 23 22 21 21 21 21 21 21 20 19 19 19 19 18 17 17 17 16 17 16 17 17 17 17 17 18 17 18 18 19 19 19 20 21 20 20 20 20 20 21 22 23 24
24 22 21 20 20 20 20 20 19 19 19 18 18 18 18 17 17 17 17 17 18 17 17 17 17 17 18 18 18 19 19 19 20 21 22 22 21 21 21 21 22 23 24 25
21 20 19 19 19 19 19 19 19 18 17 17 17 17 17 17 17 16 17 17 18 18 18 17 17 17 18 18 17 17 18 18 18 17 18 19 20 21 21 22 23 24 24 25
20 19 18 18 18 18 17 17 17 17 16 16 16 16 15 15 16 15 16 17 17 17 17 16 16 17 17 17 17 16 16 17 17 18 18 19 19 20 21 22 22 24 25 26
19 18 18 17 17 17 16 16 15 15 16 16 15 14 15 14 14 15 16 16 17 16 17 16 16 16 16 15 15 15 16 16 16 17 19 20 21 21 22 23 24 25 26 28
17 17 16 16 15 15 14 13 12 12 13 14 14 14 13 13 14 13 14 15 15 15 16 16 16 15 15 15 15 15 16 17 18 20 21 22 22 23 24 24 25 27 29 30
16 15 15 13 12 12 11 11 11 11 12 12 13 13 13 13 13 13 14 14 14 14 14 15 15 15 16 16 16 17 18 19 20 21 22 22 23 23 25 26 27 28 30 32
13 12 12 11 11 11 11 11 11 11 11 12 12 12 13 12 12 12 12 12 12 12 13 13 13 14 14 15 16 17 18 19 19 20 22 23 24 25 27 28 29 31 32 33
13 12 11 11 11 11 11 11 11 11 11 10 11 10 11 11 11 11 11 11 11 11 12 12 13 14 15 16 16 17 18 19 21 22 23 24 26 27 28 30 31 33 34 35
14 12 11 10 10 10 10 10 10 10 10 10 9 9 9 9 9 9 9 10 11 12 13 13 14 14 15 16 17 18 20 22 23 24 25 26 27 29 30 32 33 34 35 36
12 11 11 11 10 9 9 9 9 10 9 9 9 8 9 9 10 10 11 11 11 12 12 13 14 15 16 17 19 20 22 23 25 26 27 28 29 31 32 34 35 35 36 36
11 11 10 10 10 10 10 9 9 9 9 9 9 9 9 10 10 11 11 12 12 13 13 15 16 17 18 19 21 22 24 25 26 27 28 30 31 32 33 34 35 35 35 35
12 11 11 11 10 10 10 10 9 9 9 9 9 10 10 10 10 11 12 13 13 14 15 16 17 19 20 21 23 24 25 26 27 29 30 31 32 33 33 34 34 34 33 33
12 12 13 12 11 10 10 9 9 9 9 9 9 10 11 11 12 12 13 14 15 16 17 18 20 21 22 23 24 25 26 27 28 29 30 31 32 32 32 32 32 32 32 33
13 12 12 12 11 10 10 10 10 10 10 10 11 11 12 13 14 14 15 16 17 18 19 20 21 22 23 25 25 26 27 27 28 29 30 30 31 31 31 31 31 31 31 31
13 12 11 11 11 11 11 11 11 11 11 12 12 13 14 15 15 16 17 18 19 20 21 22 23 23 24 25 26 27 28 28 29 29 29 29 29 29 30 30 29 29 28 28
13 13 12 12 12 12 11 11 11 12 12 13 14 15 15 16 17 18 19 20 21 22 22 23 24 25 25 26 27 28 29 29 29 29 29 29 28 28 28 27 27 27 26 26
13 13 13 12 12 13 13 13 13 13 14 15 16 16 17 18 19 20 21 22 22 23 24 25 26 26 27 28 29 29 29 29 29 28 28 28 28 27 27 26 25 25 25 25
Wind_Direction
238 240 240 239 240 243 246 250 253 255 258 263 267 274 280 287 288 285 287 284 282 276 268 264 262 254 249 249 248 251 252 251 245 238 234 232 228 227 228 229 228 232 237 242
241 243 244 244 244 247 248 250 253 257 259 263 269 272 277 280 282 281 280 277 275 272 267 263 260 255 253 252 251 253 253 251 245 241 237 235 233 234 234 233 235 238 240 244
241 243 245 246 246 250 252 251 254 257 260 264 268 269 271 276 278 274 273 273 271 265 263 263 258 257 254 255 255 254 254 251 246 245 244 242 239 236 236 237 238 242 244 246
242 244 245 247 247 249 252 253 255 258 260 264 267 268 270 274 276 275 274 274 268 264 260 258 255 255 253 255 255 255 255 250 249 249 248 249 247 246 245 243 245 247 248 251
240 242 245 245 248 250 252 254 257 260 262 265 266 268 270 271 273 271 271 265 261 262 260 256 254 254 255 253 253 253 253 251 252 253 252 252 252 251 250 248 248 251 252 253
241 242 246 247 249 252 253 254 257 260 263 265 265 266 268 268 268 265 261 259 256 258 258 255 254 253 255 254 251 249 251 252 254 253 257 256 255 253 251 250 251 252 255 257
243 246 249 248 248 251 254 255 258 262 264 263 261 263 262 262 264 262 263 258 255 253 253 254 253 251 253 253 250 250 251 255 259 260 261 259 259 258 257 258 259 258 260 263
242 245 247 247 246 248 251 254 256 261 263 261 260 260 259 259 260 261 259 253 252 250 250 252 250 248 250 252 251 252 251 253 258 261 262 263 260 259 263 263 264 265 267 270
243 245 246 244 246 247 251 255 258 261 262 262 260 260 257 257 258 258 252 247 247 248 250 249 250 252 252 254 257 258 257 254 258 261 265 267 267 265 266 267 269 270 272 273
243 244 243 242 245 248 253 256 258 258 260 261 259 256 255 255 255 252 248 245 247 249 248 249 253 253 253 258 261 263 261 261 261 263 267 271 269 267 269 272 275 277 279 278
240 241 240 241 243 247 252 254 256 257 258 257 256 255 255 253 251 250 247 245 245 244 247 252 254 254 254 258 264 266 264 264 264 265 268 269 273 275 275 276 279 281 282 284
238 238 241 244 246 248 251 253 254 256 256 253 254 253 253 252 249 247 247 247 245 246 247 249 252 257 258 260 262 264 266 266 266 269 272 272 275 277 278 279 281 283 285 286
238 240 243 244 245 248 250 252 252 251 248 248 248 250 251 250 246 248 246 248 248 247 246 249 252 255 258 260 263 263 264 266 267 271 274 275 278 280 282 283 285 288 289 290
238 243 244 243 243 246 250 252 251 247 243 243 245 246 246 246 245 246 247 249 247 242 243 247 249 252 255 257 261 264 265 268 271 275 277 279 281 284 285 287 289 290 291 293
238 240 242 243 240 243 245 244 242 241 242 242 241 240 240 241 241 242 244 244 243 244 247 247 248 251 255 259 262 264 267 270 273 275 277 280 282 284 285 288 290 292 293 294
235 237 238 236 232 230 232 233 234 236 238 237 233 235 237 237 237 238 242 242 242 245 246 247 250 252 255 259 264 268 271 274 276 279 281 283 285 287 289 291 292 294 295 296
226 226 227 225 228 227 230 232 232 231 227 227 231 229 227 231 230 229 233 235 238 240 244 246 249 253 258 263 268 271 274 277 280 282 284 286 288 289 290 291 293 295 297 298
217 216 219 224 224 223 226 227 224 220 223 225 221 219 220 220 218 223 230 234 239 244 249 252 256 260 262 266 271 276 281 283 286 288 288 289 289 290 292 294 297 298 298 298
207 207 213 217 217 219 222 224 219 211 211 211 211 210 212 216 219 225 235 243 247 252 255 258 262 265 269 274 279 282 285 287 288 289 290 292 293 294 296 297 299 299 300 300
202 206 212 214 210 208 206 207 210 208 206 204 208 216 224 231 237 241 245 252 255 259 262 266 270 274 277 281 283 285 287 289 290 291 292 293 294 296 297 298 299 299 300 300
201 203 207 206 201 196 196 200 205 208 210 212 215 221 229 237 243 246 252 259 263 266 268 270 273 277 281 283 285 287 289 291 292 293 294 295 296 297 298 299 299 300 300 300
205 206 209 206 200 199 200 204 209 214 218 223 226 231 236 242 249 255 260 265 268 272 274 276 279 281 284 286 288 290 292 293 294 295 296 297 298 298 298 299 299 300 300 301
207 207 206 205 202 202 208 215 219 223 229 235 238 242 248 253 258 263 267 269 272 275 278 280 283 285 287 289 290 292 293 294 295 296 297 298 298 299 299 299 300 300 301 301
202 202 202 201 202 209 217 224 229 234 241 246 249 252 256 261 264 267 270 272 274 278 281 284 286 288 289 290 292 293 295 296 297 298 298 298 299 299 300 301 302 302 302 302
201 203 205 204 209 218 225 232 239 244 249 253 256 260 264 268 270 274 276 277 279 282 284 287 288 289 290 291 293 295 297 297 298 298 298 298 299 300 302 302 302 302 303 304
201 204 210 215 220 225 231 240 247 252 255 259 263 267 271 275 277 278 280 281 283 285 287 288 289 290 291 293 294 295 296 296 298 298 298 299 300 301 302 302 302 303 304 305
209 213 219 223 225 233 242 249 253 257 262 266 269 273 277 281 281 281 282 283 284 285 286 288 290 291 293 294 295 295 295 295 296 296 297 298 299 300 301 302 302 303 304 305
Height
5796 5798 5800 5802 5804 5805 5806 5808 5809 5811 5811 5813 5814 5815 5815 5815 5815 5815 5816 5816 5817 5817 5817 5817 5817 5818 5818 5818 5819 5819 5819 5819 5819 5820 5820 5820 5821 5822 5824 5825 5827 5828 5830 5832
5791 5793 5795 5797 5799 5800 5801 5803 5804 5805 5807 5809 5810 5810 5811 5811 5811 5812 5812 5813 5813 5814 5814 5814 5814 5815 5815 5815 5816 5816 5817 5817 5816 5817 5817 5818 5819 5819 5821 5822 5823 5824 5826 5827
5785 5787 5789 5791 5793 5794 5795 5797 5799 5800 5802 5803 5805 5805 5805 5805 5806 5806 5807 5808 5809 5810 5810 5810 5810 5811 5811 5812 5812 5813 5813 5813 5814 5814 5814 5815 5816 5816 5817 5818 5819 5820 5821 5822
5780 5783 5784 5787 5787 5788 5790 5791 5793 5795 5796 5798 5798 5799 5800 5800 5800 5801 5802 5803 5803 5804 5805 5805 5806 5807 5808 5808 5809 5809 5810 5810 5810 5811 5812 5812 5812 5813 5814 5814 5815 5816 5816 5817
5773 5775 5777 5779 5780 5782 5784 5786 5787 5789 5790 5791 5791 5792 5793 5794 5795 5796 5797 5797 5799 5799 5800 5800 5801 5803 5803 5804 5805 5806 5806 5807 5807 5808 5809 5809 5809 5809 5810 5810 5811 5811 5811 5812
5766 5768 5770 5774 5775 5776 5779 5780 5782 5783 5784 5784 5785 5786 5788 5788 5789 5790 5791 5792 5793 5794 5795 5796 5797 5798 5799 5800 5801 5801 5802 5803 5803 5804 5805 5805 5805 5805 5805 5805 5806 5806 5806 5806
5759 5761 5764 5767 5769 5770 5773 5775 5776 5776 5776 5777 5778 5780 5781 5782 5783 5784 5785 5787 5788 5789 5790 5791 5792 5794 5795 5795 5796 5797 5798 5799 5799 5800 5800 5800 5800 5800 5801 5801 5801 5801 5800 5800
5753 5756 5760 5761 5763 5765 5767 5768 5769 5769 5770 5770 5772 5773 5774 5775 5777 5778 5779 5781 5782 5783 5785 5786 5787 5788 5789 5789 5791 5792 5793 5794 5795 5795 5795 5795 5795 5795 5795 5795 5795 5795 5794 5794
5748 5751 5753 5755 5757 5759 5760 5761 5763 5763 5764 5764 5765 5766 5768 5769 5771 5772 5774 5775 5777 5778 5779 5780 5782 5783 5783 5784 5786 5787 5787 5788 5788 5789 5789 5789 5789 5789 5789 5789 5789 5788 5787 5787
5741 5743 5746 5749 5751 5752 5753 5755 5756 5757 5758 5758 5759 5761 5762 5764 5766 5767 5768 5770 5771 5773 5774 5776 5777 5778 5778 5779 5780 5781 5782 5782 5782 5783 5783 5783 5783 5783 5783 5783 5782 5782 5781 5780
5735 5738 5740 5742 5744 5746 5747 5749 5750 5751 5752 5753 5754 5756 5757 5759 5760 5762 5763 5764 5766 5767 5769 5771 5771 5772 5773 5774 5774 5775 5775 5776 5777 5777 5776 5777 5777 5777 5777 5776 5776 5775 5774 5772
5730 5732 5735 5737 5739 5740 5742 5743 5744 5745 5746 5748 5749 5750 5752 5753 5755 5756 5758 5759 5761 5762 5764 5765 5766 5767 5768 5769 5769 5769 5770 5770 5771 5771 5770 5770 5771 5770 5770 5769 5768 5767 5766 5764
5725 5727 5730 5732 5733 5735 5736 5737 5738 5739 5741 5742 5744 5745 5747 5747 5749 5750 5752 5754 5756 5757 5759 5760 5761 5762 5763 5764 5764 5764 5765 5765 5765 5765 5765 5765 5764 5764 5763 5762 5761 5759 5758 5756
5719 5722 5725 5727 5728 5729 5730 5732 5733 5734 5736 5737 5739 5741 5742 5743 5745 5747 5748 5750 5751 5752 5754 5755 5756 5757 5758 5759 5759 5760 5760 5760 5760 5760 5759 5759 5758 5757 5756 5755 5753 5751 5749 5747
5715 5718 5720 5722 5723 5725 5726 5727 5729 5730 5732 5733 5735 5736 5738 5739 5741 5743 5744 5746 5747 5748 5750 5751 5751 5752 5753 5754 5755 5755 5755 5755 5754 5754 5753 5752 5751 5750 5749 5747 5745 5743 5740 5737
5711 5713 5716 5718 5719 5721 5723 5724 5726 5727 5728 5729 5731 5732 5734 5736 5738 5739 5741 5742 5743 5744 5746 5747 5747 5748 5749 5750 5750 5749 5749 5749 5748 5747 5747 5745 5744 5742 5741 5739 5737 5734 5731 5728
5708 5710 5712 5714 5716 5718 5720 5721 5722 5724 5725 5726 5728 5729 5731 5733 5734 5736 5737 5739 5740 5741 5741 5742 5743 5744 5744 5745 5744 5744 5743 5742 5742 5741 5739 5738 5736 5735 5733 5730 5728 5725 5722 5718
5704 5707 5709 5711 5713 5715 5717 5718 5720 5721 5723 5724 5725 5727 5728 5730 5731 5733 5734 5735 5736 5737 5738 5739 5739 5739 5740 5739 5739 5739 5738 5736 5735 5734 5732 5730 5728 5726 5724 5721 5718 5715 5711 5708
5701 5704 5706 5708 5710 5712 5714 5715 5717 5718 5720 5722 5723 5725 5726 5728 5729 5730 5731 5732 5733 5734 5734 5734 5734 5735 5735 5734 5734 5732 5731 5730 5728 5726 5724 5722 5720 5717 5714 5711 5708 5704 5700 5696
5698 5701 5703 5705 5708 5709 5711 5713 5715 5717 5718 5720 5721 5723 5724 5726 5727 5727 5728 5729 5729 5729 5730 5730 5730 5729 5729 5728 5727 5726 5724 5723 5721 5719 5716 5714 5711 5708 5705 5701 5698 5694 5690 5686
5696 5699 5701 5703 5705 5708 5710 5711 5713 5715 5716 5718 5719 5721 5722 5723 5724 5725 5725 5725 5725 5725 5725 5725 5724 5724 5723 5722 5721 5719 5717 5715 5713 5711 5708 5705 5702 5698 5695 5691 5687 5683 5679 5675
5694 5697 5699 5702 5704 5706 5708 5710 5711 5713 5714 5716 5717 5718 5719 5720 5720 5721 5721 5721 5721 5721 5720 5720 5719 5718 5717 5715 5714 5712 5710 5707 5705 5702 5699 5696 5692 5689 5685 5681 5677 5673 5670 5666
5692 5695 5697 5699 5702 5704 5706 5707 5709 5710 5711 5712 5714 5714 5715 5716 5716 5717 5717 5716 5716 5715 5715 5714 5713 5712 5710 5708 5707 5704 5702 5699 5696 5693 5690 5687 5683 5679 5676 5672 5668 5664 5660 5656
5690 5693 5695 5697 5699 5702 5703 5705 5706 5707 5708 5709 5710 5711 5711 5712 5712 5712 5711 5711 5710 5710 5709 5707 5706 5705 5703 5701 5699 5696 5693 5691 5688 5684 5681 5677 5674 5670 5666 5663 5659 5655 5651 5647
5688 5690 5693 5695 5697 5699 5701 5702 5703 5704 5705 5706 5706 5707 5707 5707 5707 5706 5706 5705 5704 5703 5702 5700 5699 5697 5695 5693 5690 5687 5684 5681 5678 5675 5672 5668 5665 5661 5658 5654 5650 5646 5643 5639
5686 5688 5690 5692 5694 5696 5697 5699 5700 5700 5701 5701 5701 5701 5701 5701 5701 5700 5699 5698 5697 5696 5694 5692 5690 5688 5686 5684 5681 5678 5675 5672 5669 5666 5662 5659 5656 5653 5649 5646 5642 5638 5635 5632
5683 5686 5688 5690 5691 5693 5694 5695 5696 5696 5696 5696 5696 5696 5696 5695 5694 5693 5692 5691 5689 5688 5686 5684 5682 5680 5677 5675 5672 5669 5666 5663 5660 5657 5654 5651 5648 5644 5641 5638 5634 5631 5628 5625